Virginia Beach, VA

5:21 AM EDT on September 30, 2016 (GMT -0400)
Oceana Naval Air Station

Weather History for KNTU - June, 2014

Change the Weather History Date:

Saturday, June 7, 2014

  Actual Average Record
Temperature  
Mean Temperature 70 °F -  
Max Temperature 80 °F 77 °F 98 °F (2008)
Min Temperature 60 °F 61 °F 53 °F (1997)
Cooling Degree Days 4    
Growing Degree Days 20 (Base 50)    
Moisture  
Dew Point 56 °F    
Average Humidity 62    
Maximum Humidity 93    
Minimum Humidity 40    
Precipitation  
Precipitation 0.00 in - - ()
Sea Level Pressure  
Sea Level Pressure 30.00 in    
Wind  
Wind Speed 4 mph (East)    
Max Wind Speed 10 mph    
Max Gust Speed -    
Visibility 10 miles    
Events Fog    
Averages and records for this station are not official NWS values.
T = Trace of Precipitation, MM = Missing Value Source: NWS Daily Summary

Daily Weather History Graph

Daily Weather History Graph

Search for Another Location

Airport or City:

Trip Planner

Search our weather history database for the weather conditions in past years. The results will help you decide how hot, cold, wet, or windy it might be!

Date:

Astronomy

Jun. 07, 2014 Rise Set
Actual Time 5:44 AM EDT 8:21 PM EDT
Civil Twilight 5:14 AM EDT 8:51 PM EDT
Nautical Twilight 4:36 AM EDT 9:29 PM EDT
Astronomical Twilight 3:54 AM EDT 10:11 PM EDT
Moon 2:44 PM EDT (6/7) 1:56 AM EDT (6/7)
Length of Visible Light 15h 37m
Length of Day
14h 36m
Waxing Gibbous, 67% of the Moon is Illuminated
Jun 7
Waxing Gibbous
Jun 13
Full
Jun 19
Last Quarter
Jun 27
New
Jul 5
First Quarter

Hourly Weather History & Observations

Time (EDT) Temp. Dew Point Humidity Pressure Visibility Wind Dir Wind Speed Gust Speed Precip Events Conditions
12:56 AM 62.1 °F 57.9 °F 86% 29.98 in 10.0 mi Calm Calm - N/A   Scattered Clouds
1:56 AM 62.1 °F 57.9 °F 86% 29.98 in 10.0 mi Calm Calm - N/A   Clear
2:56 AM 61.0 °F 57.9 °F 90% 29.98 in 10.0 mi Calm Calm - N/A   Clear
3:56 AM 61.0 °F 57.0 °F 87% 29.98 in 10.0 mi Calm Calm - N/A   Clear
4:56 AM 60.1 °F 57.0 °F 90% 29.98 in 10.0 mi Calm Calm - N/A   Clear
5:56 AM 60.1 °F 57.9 °F 93% 29.99 in 10.0 mi Calm Calm - N/A Fog Shallow Fog
6:56 AM 64.0 °F 60.1 °F 87% 30.00 in 10.0 mi Calm Calm - N/A Fog Shallow Fog
7:56 AM 72.0 °F 63.0 °F 73% 30.03 in 10.0 mi North 4.6 mph - N/A   Partly Cloudy
8:56 AM 75.9 °F 55.9 °F 50% 30.03 in 10.0 mi NNE 9.2 mph - N/A   Scattered Clouds
9:56 AM 78.1 °F 54.0 °F 43% 30.02 in 10.0 mi NE 9.2 mph - N/A   Scattered Clouds
10:56 AM 78.1 °F 53.1 °F 42% 30.03 in 10.0 mi ENE 10.4 mph - N/A   Mostly Cloudy
11:56 AM 79.0 °F 53.1 °F 40% 30.04 in 10.0 mi NE 10.4 mph - N/A   Mostly Cloudy
12:56 PM 79.0 °F 53.1 °F 40% 30.03 in 10.0 mi ENE 10.4 mph - N/A   Mostly Cloudy
1:56 PM 78.1 °F 53.1 °F 42% 30.02 in 10.0 mi NNE 9.2 mph - N/A   Mostly Cloudy
2:56 PM 79.0 °F 53.1 °F 40% 30.00 in 10.0 mi ENE 10.4 mph - N/A   Mostly Cloudy
3:56 PM 79.0 °F 55.0 °F 44% 29.98 in 10.0 mi ENE 9.2 mph - N/A   Mostly Cloudy
4:56 PM 78.1 °F 53.1 °F 42% 29.98 in 10.0 mi ESE 9.2 mph - N/A   Scattered Clouds
5:56 PM 77.0 °F 54.0 °F 45% 29.98 in 10.0 mi ESE 9.2 mph - N/A   Scattered Clouds
6:56 PM 75.0 °F 54.0 °F 48% 29.99 in 10.0 mi ESE 8.1 mph - N/A   Partly Cloudy
7:56 PM 72.0 °F 53.1 °F 51% 29.99 in 10.0 mi SSE 5.8 mph - N/A   Clear
8:56 PM 71.1 °F 55.0 °F 57% 29.99 in 10.0 mi SSE 3.5 mph - N/A   Partly Cloudy
9:56 PM 68.0 °F 55.9 °F 65% 30.00 in 10.0 mi South 3.5 mph - N/A   Partly Cloudy
10:56 PM 64.9 °F 55.9 °F 73% 29.99 in 10.0 mi Calm Calm - N/A   Partly Cloudy
11:56 PM 64.0 °F 55.9 °F 75% 29.99 in 10.0 mi WSW 4.6 mph - N/A   Clear